STARLINK-35283

Last updated on Tue Dec 16 2025 00:02:05 GMT+0000 (Coordinated Universal Time)

1 66478U 25262Y 25349.33335648 -.00002923 00000+0 -62759-4 0 9996 2 66478 43.0008 55.9698 0001057 277.0338 162.8307 15.40691083 6058
UTC large
Height (km)
Speed (km/s)
/
Latitude / Longitude
Inclination (degrees)
Orbital Period (minutes)
Azimuth
Elevation
Range (km)
Doppler Factor

Next 0 passes for location: London (51.5072 / 0.1276)

Sorry there are no passes over London.